Date,TemperatureHighF,TemperatureAvgF,TemperatureLowF,DewpointHighF,DewpointAvgF,DewpointLowF,HumidityHigh,HumidityAvg,HumidityLow,PressureMaxIn,PressureMinIn,WindSpeedMaxMPH,WindSpeedAvgMPH,GustSpeedMaxMPH,PrecipitationSumIn
2013-2-1,33.8,23.9,16.6,27.0,6.7,-5.0,86,50,30,30.52,30.16,21,7,0,0.00
2013-2-2,31.7,27.0,19.3,29.0,9.3,-18.0,98,58,14,30.52,30.25,7,2,0,0.00
2013-2-3,36.2,30.3,26.1,30.0,24.4,21.0,97,80,55,30.24,30.11,13,6,0,0.05
2013-2-4,41.6,35.1,25.7,22.0,18.4,11.0,76,52,40,30.30,30.16,14,3,0,0.05
2013-2-5,49.2,41.9,37.2,39.0,29.1,17.0,91,62,41,30.16,30.09,10,3,0,0.00
2013-2-6,53.7,45.4,39.3,37.0,25.8,17.0,82,49,28,30.31,30.15,11,3,0,0.00
2013-2-7,46.3,41.9,38.1,41.0,34.5,24.0,98,77,41,30.30,30.07,6,2,0,0.01
2013-2-8,42.6,38.7,30.3,42.0,35.7,25.0,99,90,62,30.24,30.03,21,5,0,0.00
2013-2-9,52.9,40.4,29.6,25.0,17.6,7.0,81,42,25,30.46,30.22,13,3,0,0.00
2013-2-10,45.1,40.0,35.9,45.0,28.3,17.0,98,66,38,30.47,30.29,11,2,0,0.00
2013-2-11,49.9,46.5,43.1,50.0,40.3,20.0,99,82,35,30.29,30.14,11,3,0,0.00
2013-2-12,48.4,41.7,36.0,36.0,23.8,13.0,90,52,26,30.20,30.00,9,3,0,0.00
2013-2-13,41.5,36.8,30.1,41.0,34.8,27.0,98,92,81,30.01,29.81,20,5,0,0.00
2013-2-14,47.2,35.3,26.1,30.0,25.8,21.0,92,71,42,30.22,30.03,17,4,0,0.00
2013-2-15,49.4,40.0,32.1,35.0,29.3,26.0,93,67,44,30.23,30.08,11,3,0,0.00
2013-2-16,31.7,24.5,16.6,29.0,17.6,7.0,90,75,59,30.19,29.99,17,6,0,0.00
2013-2-17,28.3,21.2,14.1,10.0,5.3,-1.0,67,52,30,30.48,30.19,18,7,0,0.00
2013-2-18,46.5,35.1,25.5,25.0,18.5,10.0,63,51,40,30.55,30.33,8,2,0,0.00
2013-2-19,43.8,35.2,29.0,37.0,25.2,12.0,98,70,41,30.33,30.08,13,4,0,0.00
2013-2-20,41.4,33.4,24.4,13.0,-5.0,-18.0,54,23,8,30.29,30.19,19,7,0,0.00
2013-2-21,55.6,42.3,32.2,33.0,6.3,-23.0,93,28,6,30.33,30.18,10,1,0,0.00
2013-2-22,47.7,36.7,30.9,47.0,35.9,30.0,99,97,91,30.32,30.20,9,1,0,0.00
2013-2-23,49.1,47.0,42.0,48.0,46.4,40.0,99,98,92,30.22,29.93,6,1,0,0.00
2013-2-24,51.6,43.0,36.0,39.0,26.0,17.0,91,55,25,30.15,29.96,13,5,0,0.00
2013-2-25,43.6,39.4,33.6,35.0,26.1,20.0,97,61,43,30.18,30.02,8,2,0,0.00
2013-2-26,42.1,38.0,32.9,42.0,37.3,30.0,99,97,88,30.00,29.70,16,5,0,0.00
2013-2-27,45.1,35.7,29.0,35.0,29.6,27.0,95,80,56,29.97,29.81,16,5,0,0.00
2013-2-28,34.1,28.0,24.3,28.0,22.7,20.0,87,80,74,30.09,29.87,16,6,0,0.00